Regional Weather Roundup
Issued by NWS

Home | Current Version | Previous Version | Text Only | Print | Product List | Glossary On
Versions: 1 2 3 4 5 6 7 8 9 10 11 12 13 14 15 16 17 18 19 20 21 22 23 24 25 26 27 28 29 30 31 32 33 34 35 36 37 38 39 40 41 42 43 44 45 46 47 48 49 50
000
ASUS43 KDTX 270101
RWRMI
MICHIGAN HOURLY REGIONAL WEATHER ROUNDUP
NATIONAL WEATHER SERVICE DETROIT/PONTIAC MI
900 PM EDT MON SEP 26 2016

NOTE: "FAIR" INDICATES FEW OR NO CLOUDS BELOW 12,000 FEET WITH NO
SIGNIFICANT WEATHER AND/OR OBSTRUCTION TO VISIBILITY.

MIZ047>049-052>055-059>063-066>070-074>076-081>083-270200-
SOUTHEAST LOWER MICHIGAN

CITY           SKY/WX    TMP DP  RH WIND       PRES   REMARKS
ADRIAN         CLEAR     55  43  63 CALM      29.94R
ALMA           LGT RAIN  55  45  68 W10G18    29.87R
ANN ARBOR      CLEAR     47  43  86 S3        29.92R
BAD AXE        PTCLDY    53  45  74 SW3       29.86S
CARO           PTCLDY    53  44  73 SW3       29.86S
DETROIT CITY   CLEAR     62  42  47 W8        29.92R
DETROIT        PTCLDY    60  41  49 W6        29.93R
FLINT          MOCLDY    58  43  57 SW7       29.89S
GROSSE ILE     CLEAR     60  41  49 W3        29.92R
HILLSDALE      CLEAR     54  39  58 SW3       29.93S
HOWELL         CLEAR     56  43  60 S3        29.90S

CITY           SKY/WX    TMP DP  RH WIND       PRES   REMARKS
JACKSON        CLEAR     55  42  61 SW3       29.92S
LAMBERTVILLE   CLEAR     54  47  76 SW3       29.95R
LANSING        CLOUDY    58  42  55 W9        29.90S
LAPEER         FAIR      56  43  62 SW5       29.89S
MASON          PTCLDY    55  43  62 S6        29.91S
MONROE         CLEAR     55  44  66 CALM      29.93R
PONTIAC        CLEAR     58  42  55 SW6       29.90S
PORT HURON     CLEAR     57  43  58 SW3       29.90R
TRI CITIES     CLEAR     56  44  64 SW7       29.86S
MIDLAND        MOCLDY    55  44  66 W16G24    29.86R
TROY           CLEAR     62  40  45 SW6       29.93S
SAGINAW HB     CLEAR     54  45  71 S6        29.86S
$$
MIZ043>046-050>051-056>058-064>065-071>073-077>080-270200-
SOUTHWEST LOWER MICHIGAN

CITY           SKY/WX    TMP DP  RH WIND       PRES   REMARKS
BATTLE CREEK   PTCLDY    54  44  69 SW8       29.92S
BENTON HARBOR  MOCLDY    65  34  31 W16G30    29.92R
BIG RAPIDS     CLOUDY    55  44  66 W6        29.82S
COLDWATER      CLEAR     55  40  57 SW3       29.93S
FREMONT        FAIR      57  34  41 W6        29.84R
HOLLAND        PTCLDY    64  38  38 W14G25    29.89R
GRAND RAPIDS   CLOUDY    58  43  57 W10       29.89R
IONIA          MOCLDY    54  43  64 NW8       29.88R
KALAMAZOO      PTCLDY    55  42  61 SW7       29.92S
LUDINGTON      MOCLDY    61  40  46 W13G24    29.82R
MARSHALL       CLEAR     56  42  60 S3        29.91S
MOUNT PLEASANT PTCLDY    56  43  61 NW3       29.84R
MUSKEGON       MOCLDY    63  42  46 W17G24    29.85F
SOUTH HAVEN    PTCLDY    66  37  33 W14G20    29.91R
$$
MIZ016>042-270200-
NORTHERN LOWER MICHIGAN

CITY           SKY/WX    TMP DP  RH WIND       PRES   REMARKS
ALPENA         MOCLDY    55  43  63 SW9       29.76S
BEAVER ISLAND  CLOUDY    56  47  73 W25G32    29.68S
BELLAIRE       LGT RAIN  54  49  83 CALM      29.76R
CADILLAC       CLOUDY    51  42  72 SW7       29.79S
CHARLEVOIX     HVY RAIN  56  47  70 SW16G28   29.73F
FRANKFORT      CLOUDY    58  44  61 W21G31    29.78S
GAYLORD        CLOUDY    50  44  80 SW13      29.76R
GRAYLING       LGT RAIN  50  47  88 W7        29.79S
HARBOR SPRINGS LGT RAIN  54  49  83 SW14      29.70F
HOUGHTON LAKE  MOCLDY    54  43  66 SW13G18   29.81R
MANISTEE       LGT RAIN  58  43  57 W20G29    29.80R
OSCODA         PTCLDY    52  43  71 SW9       29.79R
PELLSTON       LGT RAIN  53  48  83 W8        29.70F
ROGERS CITY    CLOUDY    53  47  79 SW9       29.74S
TRAVERSE CITY  LGT RAIN  55  46  71 W13G20    29.77R
$$
MIZ007>008-015-270200-
EASTERN UPPER MICHIGAN

CITY           SKY/WX    TMP DP  RH WIND       PRES   REMARKS
KINROSS        CLOUDY    52  46  80 SW7       29.65F
MACKINAC ISLAN CLOUDY    54  48  81 W14G25    29.66F
NEWBERRY       CLOUDY    52  46  82 SW13G21   29.64S
S. S. MARIE    CLOUDY    53  47  79 SW12      29.63F
MUNISING         N/A     52  48  86 S7        29.63S
$$
MIZ004>006-011>014-085-270200-
CENTRAL UPPER MICHIGAN

CITY           SKY/WX    TMP DP  RH WIND       PRES   REMARKS
MANISTIQUE     CLOUDY    54  44  70 SW9G16    29.67S
ESCANABA       CLOUDY    54  45  71 W13       29.69S
MENOMINEE      CLOUDY    55  43  63 W7        29.75F
SAWYER-GWINN   LGT RAIN  48  46  93 W15G21    29.65S
$$
MIZ001>003-009>011-084-270200-
WESTERN UPPER MICHIGAN

CITY           SKY/WX    TMP DP  RH WIND       PRES   REMARKS
IRON MOUNTAIN  LGT RAIN  51  44  77 W17G24    29.69F
HOUGHTON       LGT RAIN  51  47  86 W23G41    29.53F
COPPER HARBOR    N/A     54  48  80 NW12G30   29.49F
IRONWOOD       RAIN      49  47  93 W18G24    29.70S
$$

ABBREVIATIONS USED IN REMARKS
   TC - TEMPERATURE IN CELSIUS
  WCI - WIND CHILL INDEX
   HX - HEAT INDEX
  VSB - VISIBILITY




USA.gov is the U.S. government's official web portal to all federal, state and local government web resources and services.